[[{"header":{"parameterUnit":"m.s-1","parameterCategory":1,"la1":30.2991,"la2":30.254,"lo1":-89.0895,"lo2":-89.0444,"dy":0.0017,"dx":0.0017,"nx":28,"ny":28,"refTime":"2023-10-14T21:00:00:Z","depth":0,"parameterNumber":2,"parameterNumberName":"U-component_of_WINDS"},"data":[0,0,0,0,0,0,0,0,0,0,0,0,0,0,0,0,0,0,0,0,0,0,0,0,0,0,0,0,0,0,0,0,0,0,0,0,0,0,0,0,0,0,0,0,0,0,0,0,0,0,0,0,0,0,0,0,0,0,2.5688,2.5688,0,2.5709,2.571,2.571,2.5684,2.5683,2.5682,2.5681,2.5702,2.5703,2.5705,0,0,0,0,0,0,0,0,0,0,0,0,0,2.5625,2.5626,2.5688,2.5688,2.5689,2.5709,2.571,2.571,2.5684,2.5683,2.5682,2.5681,2.5701,2.5703,2.5705,0,0,0,0,0,0,0,0,0,0,0,0,0,2.565,2.5626,2.5688,2.5678,2.5678,2.5709,2.571,2.571,2.5684,2.5683,2.5681,2.568,2.5701,2.5703,2.5705,2.5747,0,0,2.5712,2.5713,0,0,0,0,0,0,0,0,2.5648,2.5652,2.5679,2.5679,2.5678,2.5693,2.5695,2.5722,2.5685,2.5682,2.5681,2.5679,2.57,2.5702,2.5709,2.5748,2.5749,2.5712,2.5713,2.5714,2.5715,0,0,0,0,0,0,0,2.5647,2.5651,2.5696,2.568,2.5679,2.5673,2.5675,2.57,2.5698,2.5682,2.568,2.5683,2.5699,2.5707,2.5709,2.5749,2.5712,2.5714,2.5715,2.5716,2.5825,2.5826,0,0,0,0,0,0,2.5646,2.565,2.5696,2.5697,2.566,2.5675,2.5677,2.5689,2.5698,2.5698,2.5684,2.5682,2.5704,2.5707,2.571,2.576,2.5714,2.5716,2.5717,2.5823,2.5825,2.5827,0,0,0,0,0,0,2.5645,2.5651,2.5695,2.5673,2.5678,2.5678,2.5691,2.5691,2.5698,2.57,2.5699,2.5692,2.5703,2.5707,2.5738,2.576,2.5717,2.5719,2.5821,2.5824,2.5826,2.586,0,0,0,0,0,0,2.5643,2.565,2.5666,2.5674,2.5679,2.5723,2.5693,2.5692,2.5702,2.5699,2.5708,2.5708,2.5702,2.5735,2.5741,2.5763,2.5721,2.5819,2.5822,2.5825,2.5857,2.5864,2.5869,0,0,0,0,0,2.5641,2.5674,2.5667,2.5673,2.5699,2.5724,2.5727,2.5721,2.5704,2.572,2.5721,2.5707,2.5758,2.5739,2.5744,2.5767,2.5818,2.5822,2.5825,2.5855,2.5862,2.5869,0,0,0,0,0,0,2.5669,2.5675,2.5667,2.5704,2.5714,2.572,2.5739,2.5729,2.5744,2.574,2.5731,2.5734,2.5767,2.5771,2.575,2.5809,2.5785,2.579,2.5805,2.5813,2.5819,2.5817,2.5723,0,0,0,0,0,2.5679,2.5699,2.5704,2.5736,2.5741,2.574,2.575,2.5745,2.5754,2.5758,2.5762,2.5772,2.579,2.5802,2.5818,2.5858,2.586,2.5877,2.5883,2.5888,2.5892,2.5914,2.5921,2.5839,2.5839,2.5839,0,0,2.5701,2.5707,2.572,2.5742,2.5748,2.5769,2.5743,2.5766,2.5781,2.5762,2.5791,2.5795,2.5805,2.5841,2.5857,2.5845,2.5915,2.5892,2.5896,2.5898,2.5918,2.5926,2.5933,2.5841,2.5841,2.584,0,0,2.5751,2.5757,2.5785,2.5793,2.5804,2.5803,2.581,2.5818,2.582,2.585,2.5836,2.5854,2.5885,2.5893,2.5902,2.5957,2.5945,2.5963,2.5993,2.6015,2.6021,2.6027,2.6046,2.6054,2.5967,2.5967,2.5967,0,2.5776,2.5807,2.58,2.5825,2.5835,2.5819,2.5847,2.5855,2.5871,2.5879,2.5865,2.5905,2.5911,2.5948,2.5962,2.597,2.5977,2.5961,2.6021,2.6027,2.6032,2.605,2.6058,2.5969,2.5969,2.5969,2.5968,0,2.5837,2.5859,2.588,2.5897,2.5909,2.5935,2.5933,2.5947,2.5941,2.5942,2.5973,2.598,2.5998,2.6007,2.6001,2.6044,2.6036,2.6022,2.5997,2.6042,2.6059,2.6066,2.5972,2.5971,2.5971,2.597,0,0,2.5903,2.5917,2.5925,2.5933,2.5945,2.5962,2.5988,2.6006,2.6018,2.603,2.6052,2.6079,2.6067,2.6076,2.6071,2.609,2.6134,2.6074,2.6074,2.6084,2.6182,2.6192,2.62,2.6126,2.6128,2.6129,2.6181,0,2.5953,2.5997,2.5993,2.6036,2.6056,2.6042,2.6065,2.6075,2.6077,2.6094,2.6096,2.6116,2.6098,2.6104,2.6122,2.6124,2.6153,2.6121,2.6146,2.6146,2.6142,2.621,2.622,2.6269,2.6188,2.6189,2.619,0,2.6016,2.6031,2.6076,2.6086,2.6095,2.6115,2.6132,2.6149,2.6161,2.6161,2.6172,2.6165,2.6191,2.6167,2.6203,2.6181,2.6192,2.6195,2.6196,2.6197,2.617,2.6212,2.6285,2.6292,2.6201,2.62,2.6199,0,2.6059,2.6091,2.6122,2.6129,2.6142,2.6157,2.6163,2.6173,2.6185,2.62,2.6207,2.6225,2.6235,2.6249,2.6247,2.6229,2.6284,2.6259,2.6284,2.6284,2.6295,2.6294,2.637,2.6303,2.6303,2.6303,2.6303,0,2.6114,2.6142,2.6142,2.6161,2.6192,2.6187,2.6218,2.6222,2.6232,2.6252,2.6241,2.626,2.6256,2.6275,2.6273,2.6303,2.6308,2.6309,2.6308,2.6309,2.6309,2.6315,2.6311,2.6305,2.6305,2.6304,2.6304,0,2.6167,2.6168,2.6201,2.6211,2.6214,2.6237,2.6245,2.6263,2.6265,2.629,2.6296,2.6298,2.632,2.632,2.6344,2.6343,2.638,2.6376,2.6376,2.6375,2.64,2.6397,2.6481,2.6491,2.6419,2.642,2.642,0,2.6202,2.6223,2.6236,2.6248,2.6256,2.6276,2.6288,2.6286,2.6299,2.6315,2.6331,2.6352,2.6368,2.6404,2.6408,2.6427,2.6422,2.645,2.6425,2.6426,2.6422,2.642,2.6422,2.6455,2.6455,2.6456,2.6457,0,2.6263,2.6263,2.6281,2.63,2.6315,2.6329,2.6343,2.6354,2.6353,2.6368,2.639,2.6403,2.6429,2.645,2.6469,2.6475,2.6466,2.6465,2.6472,2.6473,2.6472,2.6472,2.6389,2.6463,2.6462,2.6462,2.6461,2.6461,2.6307,2.6326,2.6338,2.6359,2.6369,2.6382,2.64,2.6404,2.6423,2.6444,2.6441,2.6466,2.6479,2.6503,2.6511,2.6531,2.6521,2.6531,2.6533,2.6535,2.6538,2.647,2.6534,2.6534,2.6534,2.6534,2.6534,0,2.6367,2.6375,2.6394,2.6414,2.6431,2.6422,2.6437,2.6451,2.6473,2.6486,2.6503,2.6529,2.655,2.6556,2.6576,2.6591,2.6587,2.6596,2.6595,2.6596,2.6546,2.6537,2.6599,2.6599,2.6599,2.6599,2.6599,2.6599,2.64,2.6431,2.6433,2.6469,2.6476,2.6501,2.651,2.6523,2.6533,2.6563,2.658,2.6585,2.6595,2.6616,2.6635,2.6636,2.6644,2.6655,2.6654,2.6606,2.66,2.6593,2.6586,2.6656,2.6657,2.6703,2.6704,2.6704]},{"header":{"parameterUnit":"m.s-1","parameterCategory":1,"la1":30.2991,"la2":30.254,"lo1":-89.0895,"lo2":-89.0444,"dy":0.0017,"dx":0.0017,"nx":28,"ny":28,"refTime":"2023-10-14T21:00:00:Z","depth":0,"parameterNumber":3,"parameterNumberName":"V-component_of_WINDS"},"data":[0,0,0,0,0,0,0,0,0,0,0,0,0,0,0,0,0,0,0,0,0,0,0,0,0,0,0,0,0,0,0,0,0,0,0,0,0,0,0,0,0,0,0,0,0,0,0,0,0,0,0,0,0,0,0,0,0,0,-7.0121,-7.0123,0,-7.0324,-7.0326,-7.0328,-7.0261,-7.0257,-7.0252,-7.0248,-7.0451,-7.046,-7.0469,0,0,0,0,0,0,0,0,0,0,0,0,0,-6.9671,-6.968,-7.012,-7.0123,-7.0126,-7.0323,-7.0326,-7.0329,-7.0262,-7.0256,-7.0251,-7.0246,-7.0448,-7.0459,-7.047,0,0,0,0,0,0,0,0,0,0,0,0,0,-6.9869,-6.9683,-7.012,-7.0116,-7.0118,-7.0323,-7.0326,-7.0329,-7.0263,-7.0256,-7.025,-7.0244,-7.0444,-7.0458,-7.0472,-7.0691,0,0,-7.0515,-7.0521,0,0,0,0,0,0,0,0,-6.9858,-6.9886,-7.0114,-7.0117,-7.0119,-7.026,-7.0242,-7.0451,-7.0265,-7.0208,-7.0248,-7.024,-7.0392,-7.041,-7.0463,-7.0701,-7.0709,-7.0517,-7.0525,-7.0531,-7.0535,0,0,0,0,0,0,0,-6.9845,-6.9877,-7.0201,-7.0117,-7.0121,-7.0103,-7.0124,-7.0281,-7.0334,-7.0212,-7.0208,-7.0233,-7.0392,-7.0449,-7.0467,-7.0712,-7.0516,-7.0529,-7.0538,-7.0543,-7.1142,-7.1149,0,0,0,0,0,0,-6.983,-6.9866,-7.0194,-7.0207,-6.997,-7.0116,-7.014,-7.0222,-7.0332,-7.0343,-7.0238,-7.0229,-7.0428,-7.0451,-7.0474,-7.074,-7.0531,-7.0544,-7.0553,-7.1135,-7.1144,-7.1152,0,0,0,0,0,0,-6.9821,-6.986,-7.0186,-7.0035,-7.0075,-7.0131,-7.0223,-7.0229,-7.0286,-7.0352,-7.0361,-7.0287,-7.0424,-7.0454,-7.0639,-7.0746,-7.0551,-7.0564,-7.1126,-7.1138,-7.1148,-7.1273,0,0,0,0,0,0,-6.9808,-6.9857,-6.9942,-7.0038,-7.0084,-7.0349,-7.023,-7.0238,-7.0311,-7.0301,-7.04,-7.041,-7.0421,-7.0618,-7.0653,-7.0762,-7.0575,-7.1117,-7.1131,-7.1144,-7.1259,-7.1287,-7.131,0,0,0,0,0,-6.9792,-6.9967,-6.9946,-6.9986,-7.0191,-7.0355,-7.0381,-7.0392,-7.032,-7.0406,-7.0448,-7.0407,-7.0728,-7.0637,-7.0676,-7.0791,-7.111,-7.1127,-7.1143,-7.1248,-7.1281,-7.1309,0,0,0,0,0,0,-6.988,-6.998,-6.9958,-7.0169,-7.0255,-7.0344,-7.0451,-7.0426,-7.0532,-7.0518,-7.0525,-7.0548,-7.0738,-7.0782,-7.0679,-7.101,-7.0908,-7.0934,-7.0975,-7.1007,-7.1032,-7.1018,-7.0587,0,0,0,0,0,-6.9925,-7.0051,-7.013,-7.0309,-7.0353,-7.0396,-7.0467,-7.0468,-7.0556,-7.0591,-7.0647,-7.0733,-7.0853,-7.0932,-7.1046,-7.1265,-7.1286,-7.1363,-7.1388,-7.1409,-7.1431,-7.1552,-7.1588,-7.1206,-7.1206,-7.1206,0,0,-7.0017,-7.0087,-7.0166,-7.0329,-7.0395,-7.0525,-7.0426,-7.0567,-7.0663,-7.0612,-7.0791,-7.0835,-7.0931,-7.1134,-7.1226,-7.1177,-7.1541,-7.143,-7.1446,-7.1457,-7.1573,-7.1609,-7.1641,-7.1218,-7.1216,-7.1214,0,0,-7.0252,-7.0317,-7.0475,-7.0544,-7.0646,-7.0673,-7.0711,-7.0805,-7.0833,-7.1013,-7.0978,-7.1091,-7.1298,-7.1369,-7.1431,-7.1695,-7.1662,-7.1732,-7.1865,-7.1983,-7.2013,-7.204,-7.2136,-7.217,-7.1753,-7.1754,-7.1754,0,-7.0354,-7.055,-7.0558,-7.0704,-7.0777,-7.0738,-7.0898,-7.0963,-7.1097,-7.1148,-7.1091,-7.1352,-7.1413,-7.1633,-7.1698,-7.175,-7.1793,-7.1721,-7.2008,-7.2035,-7.206,-7.2152,-7.2187,-7.1762,-7.1761,-7.176,-7.1759,0,-7.067,-7.0807,-7.0921,-7.1055,-7.114,-7.1291,-7.1323,-7.1408,-7.1401,-7.1434,-7.1619,-7.1691,-7.1821,-7.1872,-7.1866,-7.2093,-7.2059,-7.2006,-7.1904,-7.2104,-7.2191,-7.2226,-7.1773,-7.177,-7.1768,-7.1766,0,0,-7.0967,-7.1104,-7.1146,-7.1207,-7.1318,-7.1423,-7.1572,-7.1701,-7.1775,-7.1868,-7.1994,-7.2171,-7.2123,-7.2194,-7.2196,-7.2299,-7.2506,-7.2232,-7.2235,-7.2282,-7.2761,-7.2803,-7.2843,-7.2484,-7.249,-7.2496,-7.2754,0,-7.1213,-7.1479,-7.1491,-7.1732,-7.1859,-7.1825,-7.1955,-7.2037,-7.2071,-7.2183,-7.222,-7.2347,-7.2272,-7.2315,-7.2416,-7.2459,-7.2602,-7.244,-7.2601,-7.2607,-7.258,-7.2888,-7.2932,-7.3172,-7.2788,-7.2793,-7.2797,0,-7.1535,-7.1642,-7.1897,-7.1991,-7.2045,-7.2162,-7.2282,-7.2389,-7.2481,-7.2499,-7.258,-7.2567,-7.272,-7.2612,-7.2823,-7.2713,-7.2779,-7.281,-7.282,-7.2836,-7.2715,-7.2915,-7.3249,-7.3286,-7.285,-7.2846,-7.2842,0,-7.1729,-7.1935,-7.2115,-7.2168,-7.2282,-7.2366,-7.2417,-7.2502,-7.2579,-7.2683,-7.2733,-7.2853,-7.2919,-7.3011,-7.3031,-7.295,-7.3242,-7.3136,-7.3262,-7.3262,-7.3326,-7.3322,-7.3678,-7.3366,-7.3365,-7.3365,-7.3364,0,-7.2003,-7.2161,-7.2204,-7.2315,-7.249,-7.2503,-7.2676,-7.2721,-7.2798,-7.2916,-7.2891,-7.3003,-7.3021,-7.3136,-7.3152,-7.3325,-7.3354,-7.3373,-7.3376,-7.3377,-7.3375,-7.3421,-7.3406,-7.3374,-7.3372,-7.337,-7.3369,0,-7.2249,-7.2285,-7.2479,-7.2572,-7.2599,-7.2724,-7.2803,-7.2909,-7.2941,-7.3092,-7.3127,-7.3178,-7.3313,-7.3341,-7.35,-7.351,-7.3717,-7.3702,-7.3687,-7.3686,-7.3812,-7.3801,-7.4211,-7.4267,-7.3917,-7.392,-7.3923,0,-7.2423,-7.2544,-7.2651,-7.273,-7.2786,-7.2912,-7.2991,-7.3008,-7.3092,-7.3206,-7.3299,-7.3431,-7.3538,-7.3755,-7.3805,-7.3926,-7.3915,-7.4051,-7.3933,-7.3931,-7.392,-7.3913,-7.3926,-7.4074,-7.4078,-7.4081,-7.4083,0,-7.2729,-7.2741,-7.2857,-7.2981,-7.3076,-7.3174,-7.3266,-7.3331,-7.3361,-7.3455,-7.3594,-7.3678,-7.3841,-7.3973,-7.4096,-7.4146,-7.4121,-7.412,-7.4156,-7.4159,-7.4146,-7.4157,-7.3751,-7.4111,-7.4108,-7.4106,-7.4104,-7.4103,-7.2945,-7.3052,-7.3145,-7.3276,-7.3347,-7.3435,-7.354,-7.3587,-7.3703,-7.384,-7.3841,-7.3994,-7.4083,-7.4245,-7.4303,-7.4422,-7.4379,-7.4431,-7.4444,-7.4457,-7.447,-7.4126,-7.4444,-7.4443,-7.4442,-7.4442,-7.4441,0,-7.3251,-7.331,-7.343,-7.3562,-7.3665,-7.3633,-7.3734,-7.3822,-7.3957,-7.4043,-7.415,-7.431,-7.4438,-7.4499,-7.4626,-7.4709,-7.4701,-7.4742,-7.4737,-7.475,-7.45,-7.4457,-7.4747,-7.4747,-7.4747,-7.4747,-7.4747,-7.4747,-7.3423,-7.3603,-7.3626,-7.3841,-7.3897,-7.4048,-7.4109,-7.4189,-7.4259,-7.444,-7.4547,-7.4587,-7.4663,-7.4796,-7.4912,-7.4926,-7.4975,-7.5023,-7.5032,-7.4798,-7.4767,-7.4737,-7.4697,-7.5033,-7.5033,-7.5272,-7.5274,-7.5276]}]]